Location: Unspecified
(33.6682°S, 0.0000°E)
Time: 16:40:01
(UTC+00:00)

Courier 1B - Pass Details

Date: 25 June 2019
Orbit: 963 x 1209 km, 28.3° (Epoch: 21 July)

Event Time Altitude Azimuth Distance (km) Brightness Sun altitude
Exits shadow 06:06:55 - 290° (WNW) 3,509 9.9 -11.9°
Reaches altitude 10° 06:08:25 10° 292° (WNW) 3,002 9.6 -11.6°
Maximum altitude 06:15:33 53° 7° (N) 1,297 8.4 -10.2°
Drops below altitude 10° 06:22:15 10° 82° (E) 2,826 11.4 -8.9°
Sets 06:24:56 0° 86° (E) 3,746 12.2 -8.4°
